Location: Ostrava
(49.8330°N, 18.2830°E)
Time: 17:22:40
(UTC+01:00)

Vanguard 2 Rocket - Visible Passes

Search period start: 22 December 2014 00:00
Search period end: 01 January 2015 00:00
Orbit: 554 x 3334 km, 32.9° (Epoch: 20 December)

Date Brightness Start Highest point End Pass type
(mag) Time Alt. Az. Time Alt. Az. Time Alt. Az.
26 Dec 9.9 06:32:26 10° SSE 06:34:51 12° SE 06:37:38 10° ESE visible
28 Dec 9.5 06:46:48 10° S 06:50:17 15° SSE 06:54:43 10° ESE visible
30 Dec 9.3 07:02:05 10° SSW 07:05:54 18° SSE 07:10:57 10° ESE visible
31 Dec 9.3 06:06:01 10° S 06:07:56 12° SSE 06:10:07 10° SE visible
